Meridian, MS

9:16 PM CDT on August 29, 2016 (GMT -0500)
Key

Weather History for KMEI - March, 2013

Change the Weather History Date:

Friday, March 1, 2013

  Actual Average Record
Temperature  
Mean Temperature 39 °F 52 °F  
Max Temperature 50 °F 65 °F 83 °F (1932)
Min Temperature 28 °F 40 °F 19 °F (1984)
Degree Days  
Heating Degree Days 26 13  
Month to date heating degree days 26 13  
Since 1 July heating degree days 1913 2110  
Cooling Degree Days 0 0  
Month to date cooling degree days 0 0  
Year to date cooling degree days 16 7  
Moisture  
Dew Point 28 °F    
Average Humidity 73    
Maximum Humidity 100    
Minimum Humidity 46    
Precipitation  
Precipitation 0.00 in 0.20 in 2.19 in (1994)
Month to date precipitation 0.00 0.20  
Year to date precipitation 18.83 10.93  
Sea Level Pressure  
Sea Level Pressure 30.11 in    
Wind  
Wind Speed 7 mph (WNW)    
Max Wind Speed 17 mph    
Max Gust Speed 23 mph    
Visibility 7 miles    
Events Fog , Rain    
T = Trace of Precipitation, MM = Missing Value Source: NWS Daily Summary

Daily Weather History Graph

Daily Weather History Graph

Search for Another Location

Airport or City:

Trip Planner

Search our weather history database for the weather conditions in past years. The results will help you decide how hot, cold, wet, or windy it might be!

Date:

Astronomy

Mar. 01, 2013 Rise Set
Actual Time 6:22 AM CST 5:52 PM CST
Civil Twilight 5:57 AM CST 6:17 PM CST
Nautical Twilight 5:29 AM CST 6:45 PM CST
Astronomical Twilight 5:00 AM CST 7:14 PM CST
Moon 10:07 PM CST (3/1) 8:25 AM CST (3/1)
Length of Visible Light 12h 19m
Length of Day
11h 30m
Waning Gibbous, 83% of the Moon is Illuminated
Mar 1
Waning Gibbous
Mar 4
Last Quarter
Mar 11
New
Mar 19
First Quarter
Mar 27
Full

Hourly Weather History & Observations

Time (CST) Temp. Windchill Dew Point Humidity Pressure Visibility Wind Dir Wind Speed Gust Speed Precip Events Conditions
12:58 AM 34.0 °F - 32.0 °F 92% 30.11 in 10.0 mi Calm Calm - N/A   Clear
1:58 AM 32.0 °F - 30.2 °F 93% 30.10 in 10.0 mi Calm Calm - N/A   Clear
2:58 AM 30.2 °F - 30.2 °F 100% 30.09 in 10.0 mi Calm Calm - N/A   Clear
3:58 AM 30.2 °F - 28.4 °F 93% 30.09 in 9.0 mi Calm Calm - N/A   Clear
4:37 AM 30.2 °F - 28.4 °F 93% 30.09 in 2.5 mi Calm Calm - N/A   Clear
4:44 AM 30.2 °F - 28.4 °F 93% 30.09 in 5.0 mi Calm Calm - N/A   Clear
4:54 AM 28.4 °F - 28.4 °F 100% 30.09 in 2.0 mi Calm Calm - N/A   Partly Cloudy
4:58 AM 28.9 °F - 28.9 °F 100% 30.10 in 2.0 mi Calm Calm - N/A   Partly Cloudy
5:18 AM 28.4 °F - 28.4 °F 100% 30.10 in 5.0 mi Calm Calm - N/A   Partly Cloudy
5:37 AM 28.4 °F 24.6 °F 28.4 °F 100% 30.11 in 2.0 mi South 3.5 mph - N/A   Partly Cloudy
5:40 AM 28.4 °F - 28.4 °F 100% 30.11 in 1.0 mi Calm Calm - N/A   Mist
5:47 AM 28.4 °F - 28.4 °F 100% 30.11 in 0.5 mi Calm Calm - N/A Fog Light Freezing Fog
5:58 AM 28.0 °F 24.2 °F 28.0 °F 100% 30.11 in 0.5 mi SSW 3.5 mph - N/A Fog Light Freezing Fog
6:09 AM 28.4 °F 24.6 °F 28.4 °F 100% 30.11 in 1.0 mi SSW 3.5 mph - N/A   Mist
6:17 AM 28.4 °F - 28.4 °F 100% 30.12 in 3.0 mi Calm Calm - N/A   Scattered Clouds
6:58 AM 28.9 °F - 28.9 °F 100% 30.12 in 7.0 mi Calm Calm - N/A   Clear
7:58 AM 34.0 °F - 32.0 °F 92% 30.14 in 10.0 mi Calm Calm - 0.00 in   Clear
8:58 AM 42.1 °F 38.4 °F 33.1 °F 70% 30.14 in 10.0 mi North 5.8 mph - 0.00 in Rain Light Rain
9:58 AM 45.0 °F 42.6 °F 30.0 °F 56% 30.13 in 10.0 mi WNW 4.6 mph - 0.00 in   Overcast
10:58 AM 46.9 °F - 30.0 °F 52% 30.12 in 10.0 mi NNW 8.1 mph - N/A   Mostly Cloudy
11:58 AM 48.0 °F - 30.9 °F 52% 30.11 in 10.0 mi NNW 13.8 mph - N/A   Overcast
12:58 PM 46.9 °F - 28.9 °F 50% 30.09 in 10.0 mi West 11.5 mph 20.7 mph N/A   Overcast
1:58 PM 46.4 °F 40.4 °F 28.4 °F 50% 30.07 in 10.0 mi WNW 13.8 mph 19.6 mph N/A   Mostly Cloudy
2:58 PM 46.9 °F - 28.0 °F 48% 30.06 in 10.0 mi NW 15.0 mph 19.6 mph N/A   Mostly Cloudy
3:58 PM 48.0 °F - 28.0 °F 46% 30.07 in 10.0 mi NW 10.4 mph 19.6 mph N/A   Partly Cloudy
4:58 PM 44.1 °F 36.8 °F 27.0 °F 51% 30.09 in 10.0 mi WNW 16.1 mph 23.0 mph N/A   Mostly Cloudy
5:58 PM 42.1 °F 35.7 °F 27.0 °F 55% 30.12 in 10.0 mi NW 11.5 mph - N/A   Overcast
6:58 PM 39.9 °F 32.9 °F 25.0 °F 55% 30.14 in 10.0 mi NW 11.5 mph - N/A   Overcast
7:58 PM 39.0 °F 31.8 °F 25.0 °F 57% 30.16 in 10.0 mi WNW 11.5 mph - N/A   Overcast
8:58 PM 39.0 °F 34.0 °F 24.1 °F 55% 30.17 in 10.0 mi Variable 6.9 mph - N/A   Overcast
9:58 PM 37.9 °F 31.5 °F 24.1 °F 57% 30.16 in 10.0 mi NW 9.2 mph - N/A   Overcast
10:58 PM 37.9 °F 32.1 °F 25.0 °F 60% 30.16 in 10.0 mi WNW 8.1 mph - N/A   Overcast
11:58 PM 35.1 °F 31.0 °F 25.0 °F 67% 30.15 in 10.0 mi NW 4.6 mph - N/A   Partly Cloudy